Regional Weather Roundup
Issued by NWS

Home | Current Version | Previous Version | Graphics & Text | Print | Product List | Glossary On
Versions: 1 2 3 4 5 6 7 8 9 10 11 12 13 14 15 16 17 18 19 20 21 22 23 24 25 26 27 28 29 30 31 32 33 34 35 36 37 38 39 40 41 42 43 44 45 46 47 48 49 50
000
ASUS45 KTFX 032010
RWRMT
MONTANA REGIONAL WEATHER ROUNDUP
NATIONAL WEATHER SERVICE GREAT FALLS MT
100 PM MST SAT DEC 03 2016

NOTE: "FAIR" INDICATES FEW OR NO CLOUDS BELOW 12000 FEET WITH NO
SIGNIFICANT WEATHER AND/OR OBSTRUCTIONS TO VISIBILITY.

MTZ001>007-043-032100-
WEST OF THE DIVIDE

CITY           SKY/WX    TMP DP  RH WIND       PRES   REMARKS
KALISPELL      CLOUDY    39  27  62 SW8       30.01S
MISSOULA       CLOUDY    37  31  78 CALM      30.09F
BUTTE          MIX PCPN  35  18  49 W17G29    29.98S WCI  25
MULLAN PASS    SNOW      24  22  91 W8        30.02R VSB 1/2 WCI  15
ANACONDA         N/A     37  16  41 W15G28    29.96F WCI  28
DEER LODGE       N/A     41  18  38 W12G21    30.00F
EUREKA           N/A     43  21  42 S5        30.00F
HAMILTON         N/A     41  23  48 S13G18    30.08F
LIBBY            N/A     43  25  49 W5        30.02S
PLAINS           N/A     37  33  85 SW3       30.06F
RONAN            N/A     38  29  70 CALM      30.09F
$$

MTZ008-052>055-032100-
SOUTHWEST MONTANA

CITY           SKY/WX    TMP DP  RH WIND       PRES   REMARKS
BOZEMAN        CLOUDY    39  22  50 SW10      29.98F
DILLON         CLOUDY    39  16  39 W28G38    30.01F WCI  28
W YELLOWSTONE  CLOUDY    19  16  86 SW16G28   30.06S HAZE    WCI   5
ENNIS          PTSUNNY   32  19  59 S15G22    30.07R WCI  22
THREE FORKS      N/A     43  43 100 W5        29.98S
TWIN BRIDGES     N/A     39  15  38 SW7       30.00S
$$

MTZ009-010-012-014-046-048-049-054-032100-
EAST SLOPES AND CENTRAL MONTANA

CITY           SKY/WX    TMP DP  RH WIND       PRES   REMARKS
CUT BANK       MOSUNNY   40  20  44 W28G33    29.86S
GREAT FALLS    SUNNY     41  23  48 W15       29.89R
MALMSTROM AFB  MOSUNNY   41  22  47 W15G25    29.90R
HELENA         PTSUNNY   43  20  39 NW18G30   29.96S
AUGUSTA          N/A     39  13  35 NW12      29.89R WCI  31
BOWMANS CRNR     N/A     37  20  52 W13       29.89R WCI  28
CHOTEAU          N/A     41  14  33 W16G31    29.90R
CONRAD           N/A     42  24  49 W23       29.90S
FAIRFIELD        N/A     43  12  29 W24G32    29.89R
POWER            N/A     41  17  37 W25G39    29.87S
RAYNESFORD     PTSUNNY   38  23  53 W23G32    29.88R WCI  28
ULM              N/A     41  25  53 W17G26    29.90S
$$

MTZ011-013-016-021-045-047-050-051-032100-
NORTH CENTRAL MONTANA

CITY           SKY/WX    TMP DP  RH WIND       PRES   REMARKS
HAVRE          PTSUNNY   44  26  49 W16       29.81S
LEWISTOWN      CLOUDY    38  22  52 W18G28    29.85R WCI  28
N BAR RANCH      N/A     39  16  38 NW18G33   29.85R WCI  30
CHINOOK          N/A     43  27  52 W17G24    29.80S
DENTON         PTSUNNY   42  19  40 W38G54    29.82R
GEYSER           N/A     40  22  48 W24G36    29.87R
GRASS RANGE    PTSUNNY   43  17  35 W22G36    29.80R
JUDITH GAP       N/A     38  18  44 W23G40    29.85S WCI  27
ROY            PTSUNNY   41  18  39 MISG      29.80R
STANFORD         N/A     41  17  38 W23G37    29.85R
WINIFRED       PTSUNNY   41  19  42 MISG      29.83R
$$

MTZ017>020-022>027-061-062-032100-
NORTHEAST MONTANA

CITY           SKY/WX    TMP DP  RH WIND       PRES   REMARKS
GLASGOW        CLOUDY    40  26  57 W24       29.74R
JORDAN           N/A     45  20  36 NW25G44   29.77S
SIDNEY         MOSUNNY   32  26  78 SW13      29.77F WCI  22
WOLF POINT     CLOUDY    41  28  60 W8        29.74F
PLENTYWOOD       N/A     32  30  93 S8        29.71F WCI  25
POPLAR           N/A     37  27  65 W8        29.74F WCI  31
SCOBEY           N/A     32  26  78 SW10      29.70S VSB 0   WCI  24
$$

MTZ028>42-056>058-032100-
SOUTHCENTRAL AND SOUTHEAST MONTANA

CITY           SKY/WX    TMP DP  RH WIND       PRES   REMARKS
BAKER          CLOUDY    36  24  62 W15       29.80F WCI  27
BILLINGS       PTSUNNY   45  17  32 W21G39    29.87F
LIVINGSTON     CLOUDY    37  16  42 SW25G36   29.93F WCI  25
MILES CITY     CLOUDY    44  23  43 W15       29.81F
BIG TIMBER     MOSUNNY   39  16  38 W31G39    29.92R WCI  27
FORSYTH          N/A     43  21  42 W13G20    29.83R
HARLOWTON      LGT RAIN  37  22  55 W31G40    29.88F WCI  24
LAUREL           N/A     45  14  28 W21       29.88F
ROUNDUP          N/A     44  17  34 SW25      29.78R
$$

REGIONAL REPORTS...DAKOTAS

CITY           SKY/WX    TMP DP  RH WIND       PRES   REMARKS
WILLISTON      CLOUDY    32  26  78 S8        29.76F WCI  25
MINOT          MOSUNNY   29  24  82 S9        29.81F WCI  20
DICKINSON      CLOUDY    29  23  78 W10       29.78F WCI  20
BEACH          CLOUDY    34  27  75 SW14      29.81F WCI  24
CROSBY         PTSUNNY   28  28 100 S18       29.74F FOG     WCI  16
TIOGA            N/A     27  27 100 S15       29.76F FOG     WCI  15
WATFORD CITY     N/A     32  27  80 SW12      29.78F WCI  23
BISMARCK       PTSUNNY   30  25  81 SW5       29.91S
GRAND FORKS    CLOUDY    30  22  72 S15G23    30.07F WCI  19
FARGO          PTSUNNY   32  25  75 SE17G24   30.07F WCI  21
BUFFALO SD       N/A     36  28  73 W16       29.77F WCI  26
RAPID CITY     CLOUDY    41  22  46 N14       29.86F
$$

REGIONAL REPORTS...WYOMING/IDAHO/WASHINGTON

CITY           SKY/WX    TMP DP  RH WIND       PRES   REMARKS
GILLETTE       CLOUDY    36  23  59 NW17G25   29.89F WCI  26
SHERIDAN       CLOUDY    44  23  43 VRB6      29.88F
BUFFALO WY     CLOUDY    40  19  43 S9        29.89F
CODY           SUNNY     38  10  31 W25G38    29.92F WCI  27
YELLOWSTONE LA   N/A     18  13  80 VRB3      30.04F
IDAHO FALLS    CLOUDY    31  21  66 SW12      30.19F WCI  22
SALMON         CLOUDY    32  23  69 CALM      30.12F
BOISE          CLOUDY    42  26  53 CALM      30.27F
SPOKANE        PTSUNNY   40  32  73 SW21      30.13R
$$

REGIONAL REPORTS...ALBERTA

CITY           SKY/WX    TMP DP  RH WIND       PRES   REMARKS
EDMONTON       SUNNY     37  23  56 W13       29.68F WCI  29
CALGARY        PTSUNNY   41   9  26 W13G20    29.77F
LETHBRIDGE     MOSUNNY   45  18  33 W29G36    29.81F
MEDICINE HAT   PTSUNNY   39  32  75 NW9       29.81R
WATERTON GATE    N/A     36  21  55 SW10        N/A  WCI  28
CARDSTON         N/A     39  19  45 W15G23      N/A  WCI  31
MILK RIVER       N/A     43  18  36 W30G37      N/A
ONEFOUR          N/A     45  19  36 NW31G40     N/A
$$

REGIONAL REPORTS...SASKATCHEWAN

CITY           SKY/WX    TMP DP  RH WIND       PRES   REMARKS
SWIFT CURRENT  LGT SNOW  30  28  93 W15       29.66S WCI  19
SASKATOON      CLOUDY    25  21  86 NW9       29.69R WCI  15
VAL MARIE        N/A     36  30  80 W18G24      N/A  WCI  25
ROCKGLEN         N/A     32  30  93 W16G22      N/A  WCI  21
ASSINIBOIA       N/A     39  21  48 W13         N/A  WCI  32
$$



USA.gov is the U.S. government's official web portal to all federal, state and local government web resources and services.